sat.trackr.live / text

‹ back to catalog

NUVIEW ALPHA

NORAD 62455 · 2024-252B

PAYLOAD ACTIVE UNKNOWN

§ Identity

Operator
Country
UK
Launch date
2024-12-29
Launch site
AFETR
Launch vehicle
Mass (kg)
RCS (m²)

Purposes: comms

External: N2YO · Heavens-Above · Gunter

§ Orbital elements

Epoch: 2026-05-25T03:02:38.776416Z

Period
1,436.11 min
Inclination
0.0660°
Eccentricity
0.0001510
Mean motion
1.00270822 rev/d
Perigee alt
35,780.5 km
Apogee alt
35,793.2 km
Semi-major
42,165.0 km
B*
0.0000e+0
RAAN
43.9470°
Arg perigee
15.9048°
Mean anomaly
145.4312°
Rev number
359

§ Raw data

NUVIEW ALPHA1 62455U 24252B   26145.12683769 -.00000218  00000+0  00000+0 0  99972 62455   0.0660  43.9470 0001510  15.9048 145.4312  1.00270822  3596

JSON: /api/v1/satellites/62455 · /tle

For live sub-satellite position, see the globe view (requires WebGL).

§ Visibility from observer

Set your observer location to see the next 7 days of passes ≥ 10°. The values pass through the URL so the page stays shareable.

No JS? Fill the form by hand. The geolocation button needs JavaScript.